Weather History for KCIR - November, 2013

Change the Weather History Date:

Monday, November 4, 2013

  Actual Average Record
Temperature  
Mean Temperature 54 °F -  
Max Temperature 61 °F 59 °F 77 °F (1956)
Min Temperature 47 °F 42 °F 24 °F (1989)
Degree Days  
Heating Degree Days 11    
Growing Degree Days 4 (Base 50)    
Moisture  
Dew Point 43 °F    
Average Humidity 69    
Maximum Humidity 91    
Minimum Humidity 51    
Precipitation  
Precipitation 0.00 in - - ()
Sea Level Pressure  
Sea Level Pressure 30.25 in    
Wind  
Wind Speed 6 mph (SSE)    
Max Wind Speed 17 mph    
Max Gust Speed 23 mph    
Visibility 9 miles    
Events Rain    
Averages and records for this station are not official NWS values.
T = Trace of Precipitation, MM = Missing Value Source: NWS Daily Summary

Daily Weather History Graph

Daily Weather History Graph

Search for Another Location

Airport or City:

Trip Planner

Search our weather history database for the weather conditions in past years. The results will help you decide how hot, cold, wet, or windy it might be!

Date:

Astronomy

Nov. 04, 2013 Rise Set
Actual Time 6:24 AM CST 4:56 PM CST
Civil Twilight 5:57 AM CST 5:23 PM CST
Nautical Twilight 5:26 AM CST 5:53 PM CST
Astronomical Twilight 4:56 AM CST 6:24 PM CST
Moon 7:33 AM CST (11/4) 6:02 PM CST (11/4)
Length of Visible Light 11h 25m
Length of Day
10h 31m
New Moon, 2% of the Moon is Illuminated
Nov 4
New Moon
Nov 9
First Quarter
Nov 17
Full
Nov 25
Last Quarter
Dec 2
New

Hourly Weather History & Observations

Time (CST) Temp. Dew Point Humidity Pressure Visibility Wind Dir Wind Speed Gust Speed Precip Events Conditions
12:15 AM 49.3 °F 37.9 °F 65% 30.23 in 10.0 mi SSE 4.6 mph - N/A   Clear
12:35 AM 47.7 °F 37.4 °F 68% 30.24 in 10.0 mi SE 4.6 mph - N/A   Clear
12:55 AM 48.4 °F 38.1 °F 68% 30.24 in 10.0 mi SE 5.8 mph - N/A   Clear
1:15 AM 48.2 °F 38.3 °F 69% 30.23 in 10.0 mi SE 5.8 mph - N/A   Clear
1:35 AM 47.8 °F 38.1 °F 69% 30.23 in 10.0 mi SE 5.8 mph - N/A   Clear
1:55 AM 47.7 °F 38.3 °F 70% 30.22 in 10.0 mi SE 6.9 mph - N/A   Clear
2:15 AM 48.4 °F 38.3 °F 68% 30.22 in 10.0 mi SE 8.1 mph - N/A   Clear
2:35 AM 48.6 °F 37.9 °F 67% 30.21 in 10.0 mi SE 8.1 mph - N/A   Clear
2:55 AM 48.9 °F 37.9 °F 66% 30.20 in 10.0 mi SE 8.1 mph - N/A   Clear
3:15 AM 48.9 °F 38.1 °F 66% 30.20 in 10.0 mi SSE 6.9 mph - N/A   Clear
3:35 AM 48.4 °F 37.9 °F 67% 30.21 in 10.0 mi SSE 5.8 mph - N/A   Clear
3:55 AM 48.2 °F 38.5 °F 69% 30.22 in 10.0 mi SE 5.8 mph - N/A   Clear
4:15 AM 48.4 °F 38.5 °F 69% 30.21 in 10.0 mi SE 6.9 mph - N/A   Clear
4:35 AM 49.3 °F 38.3 °F 66% 30.21 in 10.0 mi SE 8.1 mph - N/A   Clear
4:55 AM 49.6 °F 38.1 °F 65% 30.23 in 10.0 mi SSE 6.9 mph - N/A   Clear
5:15 AM 50.2 °F 38.3 °F 64% 30.24 in 10.0 mi SSE 6.9 mph - N/A   Clear
5:35 AM 49.6 °F 38.5 °F 65% 30.23 in 10.0 mi SSE 5.8 mph - N/A   Clear
5:55 AM 49.1 °F 39.2 °F 69% 30.22 in 10.0 mi SSE 8.1 mph - N/A   Clear
6:15 AM 50.7 °F 38.7 °F 63% 30.24 in 10.0 mi SSE 9.2 mph - N/A   Clear
6:35 AM 50.4 °F 38.3 °F 63% 30.24 in 10.0 mi SSE 9.2 mph - N/A   Clear
6:55 AM 50.9 °F 38.8 °F 63% 30.24 in 10.0 mi SSE 9.2 mph - N/A   Clear
7:15 AM 51.1 °F 38.7 °F 63% 30.24 in 10.0 mi SSE 10.4 mph - N/A   Clear
7:35 AM 51.3 °F 39.2 °F 63% 30.26 in 10.0 mi SSE 9.2 mph - N/A   Clear
7:55 AM 51.8 °F 39.2 °F 62% 30.27 in 10.0 mi SSE 9.2 mph - N/A   Clear
8:15 AM 52.2 °F 39.2 °F 61% 30.27 in 10.0 mi SSE 13.8 mph - N/A   Clear
8:35 AM 53.2 °F 39.4 °F 59% 30.26 in 10.0 mi SSE 10.4 mph 17.3 mph N/A   Clear
8:55 AM 54.5 °F 39.9 °F 58% 30.25 in 10.0 mi SSE 15.0 mph 21.9 mph N/A   Clear
9:15 AM 55.6 °F 40.1 °F 56% 30.24 in 10.0 mi SSE 15.0 mph 20.7 mph N/A   Clear
9:35 AM 56.3 °F 39.7 °F 54% 30.28 in 10.0 mi South 9.2 mph - N/A   Clear
9:55 AM 55.9 °F 39.6 °F 54% 30.26 in 10.0 mi SSE 17.3 mph 23.0 mph N/A   Clear
10:15 AM 56.7 °F 40.1 °F 54% 30.26 in 10.0 mi SSE 13.8 mph - N/A   Clear
10:35 AM 57.2 °F 40.5 °F 54% 30.28 in 10.0 mi South 11.5 mph 19.6 mph N/A   Clear
10:55 AM 57.4 °F 40.8 °F 54% 30.26 in 10.0 mi South 10.4 mph 16.1 mph N/A   Clear
11:15 AM 58.1 °F 41.2 °F 53% 30.26 in 10.0 mi South 11.5 mph 19.6 mph N/A   Clear
11:35 AM 59.0 °F 41.9 °F 53% 30.25 in 10.0 mi South 13.8 mph 18.4 mph N/A   Clear
11:55 AM 59.9 °F 41.9 °F 51% 30.24 in 10.0 mi SSE 12.7 mph - N/A   Clear
12:15 PM 59.9 °F 41.7 °F 51% 30.23 in 10.0 mi SSE 10.4 mph 17.3 mph N/A   Clear
12:35 PM 60.1 °F 42.6 °F 53% 30.24 in 10.0 mi South 9.2 mph 16.1 mph N/A   Clear
12:55 PM 60.3 °F 42.3 °F 51% 30.23 in 10.0 mi South 8.1 mph - N/A   Clear
1:15 PM 60.8 °F 42.4 °F 51% 30.23 in 10.0 mi South 6.9 mph - N/A   Scattered Clouds
1:35 PM 61.2 °F 42.8 °F 51% 30.22 in 10.0 mi SSE 10.4 mph - N/A   Mostly Cloudy
1:55 PM 61.3 °F 43.0 °F 51% 30.23 in 10.0 mi South 8.1 mph - N/A   Mostly Cloudy
2:15 PM 61.7 °F 43.2 °F 51% 30.24 in 10.0 mi South 5.8 mph - N/A   Overcast
2:35 PM 60.8 °F 43.3 °F 53% 30.23 in 10.0 mi South 8.1 mph - N/A   Light Drizzle
2:55 PM 59.9 °F 44.1 °F 56% 30.25 in 10.0 mi South 6.9 mph - N/A Rain Light Rain
3:15 PM 59.4 °F 45.0 °F 59% 30.25 in 10.0 mi South 5.8 mph - N/A   Light Drizzle
3:35 PM 59.0 °F 45.1 °F 60% 30.25 in 10.0 mi SSE 4.6 mph - N/A   Drizzle
3:55 PM 58.1 °F 45.9 °F 64% 30.24 in 10.0 mi South 5.8 mph - N/A Rain Light Rain
4:15 PM 57.2 °F 46.9 °F 69% 30.25 in 10.0 mi South 3.5 mph - N/A   Light Drizzle
4:35 PM 56.8 °F 46.9 °F 69% 30.25 in 10.0 mi South 3.5 mph - N/A   Light Drizzle
4:55 PM 56.3 °F 47.3 °F 72% 30.26 in 10.0 mi South 3.5 mph - N/A Rain Rain
5:15 PM 55.9 °F 47.7 °F 74% 30.25 in 10.0 mi Calm Calm - N/A   Light Drizzle
5:35 PM 55.0 °F 47.8 °F 77% 30.26 in 10.0 mi Calm Calm - N/A Rain Light Rain
5:55 PM 54.0 °F 48.2 °F 81% 30.26 in 10.0 mi Calm Calm - N/A   Light Drizzle
6:15 PM 54.0 °F 48.6 °F 82% 30.27 in 10.0 mi Calm Calm - N/A   Drizzle
6:35 PM 53.6 °F 48.7 °F 84% 30.28 in 10.0 mi Calm Calm - N/A   Drizzle
6:55 PM 53.4 °F 49.1 °F 85% 30.28 in 10.0 mi Calm Calm - N/A   Light Drizzle
7:15 PM 53.6 °F 49.5 °F 86% 30.27 in 7.0 mi ENE 4.6 mph - N/A Rain Rain
7:35 PM 53.1 °F 49.3 °F 87% 30.27 in 7.0 mi Calm Calm - N/A   Drizzle
7:55 PM 53.1 °F 49.6 °F 88% 30.27 in 5.0 mi Calm Calm - N/A Rain Rain
8:15 PM 53.2 °F 50.0 °F 89% 30.27 in 7.0 mi Calm Calm - N/A   Light Drizzle
8:35 PM 52.9 °F 49.6 °F 89% 30.28 in 5.0 mi Calm Calm - N/A   Mostly Cloudy
8:55 PM 53.1 °F 50.0 °F 89% 30.26 in 7.0 mi East 3.5 mph - N/A   Light Drizzle
9:15 PM 53.6 °F 50.5 °F 89% 30.27 in 7.0 mi Calm Calm - N/A   Overcast
9:35 PM 52.9 °F 50.0 °F 90% 30.27 in 7.0 mi Calm Calm - N/A   Mostly Cloudy
9:55 PM 53.1 °F 50.2 °F 90% 30.28 in 10.0 mi Calm Calm - N/A   Scattered Clouds
10:15 PM 52.9 °F 50.0 °F 90% 30.27 in 7.0 mi Calm Calm - N/A   Mostly Cloudy
10:35 PM 52.2 °F 49.5 °F 91% 30.27 in 5.0 mi Calm Calm - N/A   Scattered Clouds
10:55 PM 52.2 °F 49.5 °F 91% 30.27 in 5.0 mi Calm Calm - N/A   Clear
11:15 PM 52.2 °F 49.5 °F 91% 30.28 in 5.0 mi Calm Calm - N/A   Clear
11:35 PM 52.2 °F 49.6 °F 91% 30.28 in 5.0 mi Calm Calm - N/A   Clear
11:55 PM 52.2 °F 49.6 °F 91% 30.28 in 4.0 mi Calm Calm - N/A   Clear